Regional Weather Roundup
Issued by NWS

Home | Current Version | Previous Version | Graphics & Text | Print | Product List | Glossary On
Versions: 1 2 3 4 5 6 7 8 9 10 11 12 13 14 15 16 17 18 19 20 21 22 23 24 25 26 27 28 29 30 31 32 33 34 35 36 37 38 39 40 41 42 43 44 45 46 47 48 49 50
000
ASUS43 KDMX 101507
RWRIA

WEATHER ROUNDUP FOR IOWA
NATIONAL WEATHER SERVICE DES MOINES IA
1000 AM CDT THU JUL 10 2014

NOTE: "FAIR" INDICATES FEW OR NO CLOUDS BELOW 12,000 FEET WITH NO
SIGNIFICANT WEATHER AND/OR OBSTRUCTIONS TO VISIBILITY.

* - THESE STATIONS ARE NOT NWS STATIONS...THUS NOT UNDER NWS
QUALITY CONTROL.  THEY ALSO DO NOT REPORT WEATHER SUCH
AS PRECIPITATION OR FOG.

IAZ001>003-012>014-020>022-031>034-043>046-101600-
   NORTHWEST IOWA

CITY           SKY/WX    TMP DP  RH WIND       PRES   REMARKS
CARROLL *      PTSUNNY   73  63  68 S8G15     30.08F
CHEROKEE *     MOSUNNY   73  64  73 S14       30.05F
DENISON *      MOSUNNY   73  63  68 S12G20    30.05S
LE MARS *      MOSUNNY   73  64  73 S13       30.04F
ORANGE CITY *  MOSUNNY   75  63  64 S13       30.05S
SHELDON *      MOSUNNY   73  63  68 S14       30.04F
SIOUX CITY     CLOUDY    71  64  78 S8        30.03F
SPENCER        SUNNY     74  62  66 S13       30.07S
STORM LAKE *   SUNNY     73  63  68 S15       30.08S
$$

IAZ055>058-069>071-079>083-090>094-101600-
   SOUTHWEST IOWA

CITY           SKY/WX    TMP DP  RH WIND       PRES   REMARKS
ATLANTIC *     PTSUNNY   73  63  68 S10       30.08S
AUDUBON *      SUNNY     75  66  73 SE7       30.10S
CLARINDA *     SUNNY     75  61  60 S8G18     30.09S
COUNCIL BLFS * MOSUNNY   72  66  83 S12G17    30.05S
CRESTON *      SUNNY     72  63  73 S14       30.11S
HARLAN  *      MOSUNNY   73  63  68 S9        30.10S
LAMONI         CLOUDY    71  60  68 SE9       30.12S
RED OAK *      SUNNY     75  61  60 MISG      30.07S
SHENANDOAH *   SUNNY     75  64  69 S15       30.07S
$$

IAZ047>049-059>061-072>074-084-101600-
   CENTRAL IOWA

CITY           SKY/WX    TMP DP  RH WIND       PRES   REMARKS
AMES           SUNNY     74  61  63 S9        30.11S
ANKENY *       SUNNY     75  61  60 S13       30.11F
CHARITON *     SUNNY     73  61  64 S12       30.12F
DES MOINES     MOSUNNY   76  60  57 S12       30.11S
GRINNELL*      SUNNY     73  61  64 SW10      30.14S
KNOXVILLE *    SUNNY     73  59  60 S12       30.12R
MARSHALLTOWN   SUNNY     73  60  63 S14       30.12S
PELLA *        SUNNY     75  63  64 S8        30.14S
PERRY *          N/A     73  64  73 S10       30.10F
$$

IAZ004>006-015-016-023>025-035-036-101600-
   NORTH CENTRAL IOWA

CITY           SKY/WX    TMP DP  RH WIND       PRES   REMARKS
ALGONA *       SUNNY     73  61  64 SW12G18   30.09S
CLARION *      SUNNY     73  61  64 S14       30.10S
ESTHERVILLE    SUNNY     72  63  73 S12       30.06F
FORT DODGE *   SUNNY     72  63  73 S13       30.11R
MASON CITY     SUNNY     75  61  61 SW12      30.11S
FOREST CITY *    N/A     73  61  64 S13       30.10S
IOWA FALLS *     N/A     73  61  64 S14       30.12S
$$

IAZ007>011-017>019-026>030-037>042-050>054-066-101600-
   NORTHEAST IOWA

CITY           SKY/WX    TMP DP  RH WIND       PRES   REMARKS
CEDAR RAPIDS   SUNNY     73  60  63 SW9       30.14R
CHARLES CITY * PTSUNNY   70  63  78 S9        30.12S
CLINTON *      MOSUNNY   73  59  60 S9        30.19R
DECORAH *        N/A    N/A N/A N/A MISG        N/A
DUBUQUE        SUNNY     70  59  68 S8        30.17R
MONTICELLO *   SUNNY     73  63  68 S8        30.15S
OELWEIN *      SUNNY     73  68  83 SW13      30.15R
WATERLOO       MOSUNNY   75  59  57 SW13      30.11S
$$

IAZ064-065-067-068-078-101600-
   EAST CENTRAL IOWA

CITY           SKY/WX    TMP DP  RH WIND       PRES   REMARKS
DAVENPORT      SUNNY     74  60  61 SW6       30.17R
IOWA CITY      SUNNY     74  61  63 S9        30.15S
MT. PLEASANT * SUNNY     75  57  53 S9        30.16S
MUSCATINE *    SUNNY     75  61  60 S8        30.15S
QUAD CITIES    SUNNY     74  60  61 S7        30.15S
$$

IAZ062-063-075>077-085>089-095>099-101600-
   SOUTHEAST IOWA

CITY           SKY/WX    TMP DP  RH WIND       PRES   REMARKS
BURLINGTON     SUNNY     75  61  61 S6        30.16R
FAIRFIELD *    SUNNY     73  59  60 S8        30.15F
FORT MADISON * SUNNY     75  63  64 CALM      30.16S
KEOKUK *       SUNNY     75  61  60 S7        30.14F
OSKALOOSA *      N/A     73  63  68 S8        30.14S
CENTERVILLE *  SUNNY     73  63  68 S9        30.15S
OTTUMWA        SUNNY     73  61  65 S8        30.14S
WASHINGTON *   SUNNY     75  61  60 SW9       30.15S
$$

ABBREVIATIONS USED IN REMARKS
   TC - TEMPERATURES IN CELSIUS
  WCI - WIND CHILL INDEX
   HX - HEAT INDEX
  VSB - VISIBILITY
$$



USA.gov is the U.S. government's official web portal to all federal, state and local government web resources and services.